Weather History for Washington, PA

Change the Weather History Date:

Sunday, November 13, 2011

  Actual Average Record
Temperature  
Mean Temperature 58 °F -  
Max Temperature 64 °F 48 °F 68 °F (2007)
Min Temperature 51 °F 31 °F 17 °F (1997)
Degree Days  
Heating Degree Days 8    
Growing Degree Days 8 (Base 50)    
Moisture  
Dew Point 33 °F    
Average Humidity 40    
Maximum Humidity 52    
Minimum Humidity 30    
Precipitation  
Precipitation 0.00 in - - ()
Sea Level Pressure  
Sea Level Pressure 29.92 in    
Wind  
Wind Speed 9 mph (SSW)    
Max Wind Speed 16 mph    
Max Gust Speed 31 mph    
Visibility 10 miles    
Events      
Averages and records for this station are not official NWS values.
T = Trace of Precipitation, MM = Missing Value Source: NWS Daily Summary

Daily Weather History Graph

Daily Weather History Graph

Search for Another Location

Airport:

Trip Planner

Search our weather history database for the weather conditions in past years. The results will help you decide how hot, cold, wet, or windy it might be!

Date:

Astronomy

Nov. 13, 2011 Rise Set
Actual Time 7:03 AM EST 5:06 PM EST
Civil Twilight 6:35 AM EST 5:35 PM EST
Nautical Twilight 6:02 AM EST 6:07 PM EST
Astronomical Twilight 5:30 AM EST 6:39 PM EST
Moon 7:13 PM EST (11/13) 9:35 AM EST (11/13)
Length of Visible Light 11h 00m
Length of Day
10h 02m
Waning Gibbous, 93% of the Moon is Illuminated
Nov 13
Waning Gibbous
Nov 18
Last Quarter
Nov 25
New
Dec 2
First Quarter
Dec 10
Full

Hourly Weather History & Observations

Time (EST) Temp. Dew Point Humidity Pressure Visibility Wind Dir Wind Speed Gust Speed Precip Events Conditions
12:15 AM 51.8 °F 26.6 °F 38% 30.02 in 10.0 mi SSW 6.9 mph - N/A   Clear
12:35 AM 51.8 °F 26.6 °F 38% 30.03 in 10.0 mi SSW 6.9 mph - N/A   Clear
12:55 AM 51.8 °F 24.8 °F 35% 30.02 in 10.0 mi SSW 6.9 mph - N/A   Clear
1:35 AM 51.8 °F 24.8 °F 35% 30.01 in 10.0 mi SSW 6.9 mph - N/A   Clear
1:55 AM 51.8 °F 24.8 °F 35% 30.01 in 10.0 mi South 6.9 mph - N/A   Clear
2:15 AM 51.8 °F 24.8 °F 35% 30.01 in 10.0 mi SSW 4.6 mph - N/A   Clear
2:35 AM 51.8 °F 23.0 °F 33% 30.01 in 10.0 mi SSW 4.6 mph - N/A   Clear
3:15 AM 51.8 °F 21.2 °F 30% 30.01 in 10.0 mi SSW 4.6 mph - N/A   Clear
3:35 AM 51.8 °F 21.2 °F 30% 30.01 in 10.0 mi SSW 9.2 mph - N/A   Clear
3:55 AM 51.8 °F 21.2 °F 30% 30.01 in 10.0 mi SSW 6.9 mph - N/A   Clear
4:15 AM 51.8 °F 21.2 °F 30% 30.01 in 10.0 mi SW 9.2 mph 18.4 mph N/A   Clear
4:35 AM 51.8 °F 21.2 °F 30% 30.02 in 10.0 mi SSW 10.4 mph 17.3 mph N/A   Clear
4:55 AM 51.8 °F 21.2 °F 30% 30.01 in 10.0 mi SSW 10.4 mph - N/A   Clear
5:15 AM 51.8 °F 21.2 °F 30% 30.01 in 10.0 mi SSW 6.9 mph - N/A   Clear
5:35 AM 51.8 °F 21.2 °F 30% 30.01 in 10.0 mi South 5.8 mph - N/A   Clear
5:55 AM 51.8 °F 21.2 °F 30% 30.00 in 10.0 mi SSW 8.1 mph - N/A   Clear
6:35 AM 51.8 °F 21.2 °F 30% 29.98 in 10.0 mi SSW 9.2 mph - N/A   Clear
6:55 AM 51.8 °F 21.2 °F 30% 29.99 in 10.0 mi South 6.9 mph - N/A   Partly Cloudy
7:15 AM 51.8 °F 21.2 °F 30% 29.99 in 10.0 mi South 8.1 mph - N/A   Mostly Cloudy
7:55 AM 53.6 °F 23.0 °F 30% 29.98 in 10.0 mi SSW 9.2 mph 16.1 mph N/A   Partly Cloudy
8:15 AM 53.6 °F 23.0 °F 30% 29.98 in 10.0 mi South 11.5 mph 19.6 mph N/A   Clear
8:35 AM 55.4 °F 24.8 °F 31% 29.99 in 10.0 mi SSW 9.2 mph - N/A   Clear
8:55 AM 55.4 °F 24.8 °F 31% 29.98 in 10.0 mi SSW 12.7 mph 19.6 mph N/A   Clear
9:15 AM 57.2 °F 28.4 °F 33% 29.98 in 10.0 mi SSW 16.1 mph 23.0 mph N/A   Scattered Clouds
9:35 AM 57.2 °F 28.4 °F 33% 29.96 in 10.0 mi SSW 15.0 mph 26.5 mph N/A   Mostly Cloudy
9:55 AM 57.2 °F 30.2 °F 36% 29.95 in 10.0 mi SSW 10.4 mph 20.7 mph N/A   Mostly Cloudy
10:15 AM 60.8 °F 33.8 °F 36% 29.94 in 10.0 mi SSW 15.0 mph 21.9 mph N/A   Mostly Cloudy
10:35 AM 60.8 °F 33.8 °F 36% 29.94 in 10.0 mi SSW 13.8 mph 24.2 mph N/A   Scattered Clouds
10:55 AM 60.8 °F 33.8 °F 36% 29.94 in 10.0 mi SSW 12.7 mph 20.7 mph N/A   Overcast
11:15 AM 60.8 °F 35.6 °F 39% 29.93 in 10.0 mi SSW 12.7 mph 21.9 mph N/A   Overcast
11:35 AM 60.8 °F 35.6 °F 39% 29.93 in 10.0 mi SSW 15.0 mph 21.9 mph N/A   Overcast
11:55 AM 60.8 °F 37.4 °F 42% 29.92 in 10.0 mi SSW 15.0 mph 21.9 mph N/A   Overcast
12:15 PM 60.8 °F 37.4 °F 42% 29.91 in 10.0 mi SSW 13.8 mph 31.1 mph N/A   Overcast
12:35 PM 60.8 °F 37.4 °F 42% 29.90 in 10.0 mi SW 15.0 mph 24.2 mph N/A   Mostly Cloudy
12:55 PM 60.8 °F 39.2 °F 45% 29.89 in 10.0 mi SW 10.4 mph 25.3 mph N/A   Overcast
1:15 PM 60.8 °F 37.4 °F 42% 29.89 in 10.0 mi SSW 16.1 mph 24.2 mph N/A   Overcast
1:35 PM 60.8 °F 39.2 °F 45% 29.88 in 10.0 mi SSW 12.7 mph 19.6 mph N/A   Overcast
1:55 PM 60.8 °F 39.2 °F 45% 29.86 in 10.0 mi South 10.4 mph 16.1 mph N/A   Overcast
2:15 PM 62.6 °F 41.0 °F 45% 29.83 in 10.0 mi South 11.5 mph 21.9 mph N/A   Scattered Clouds
2:35 PM 62.6 °F 41.0 °F 45% 29.83 in 10.0 mi SSW 15.0 mph 28.8 mph N/A   Clear
2:55 PM 64.4 °F 42.8 °F 45% 29.83 in 10.0 mi South 11.5 mph 18.4 mph N/A   Clear
3:15 PM 64.4 °F 42.8 °F 45% 29.83 in 10.0 mi SSW 13.8 mph 21.9 mph N/A   Partly Cloudy
3:35 PM 64.4 °F 42.8 °F 45% 29.82 in 10.0 mi SSW 10.4 mph 17.3 mph N/A   Clear
3:55 PM 62.6 °F 42.8 °F 48% 29.82 in 10.0 mi SSW 12.7 mph 17.3 mph N/A   Clear
4:15 PM 62.6 °F 42.8 °F 48% 29.83 in 10.0 mi SSW 12.7 mph 21.9 mph N/A   Partly Cloudy
4:35 PM 62.6 °F 41.0 °F 45% 29.83 in 10.0 mi SSW 8.1 mph - N/A   Partly Cloudy
4:55 PM 60.8 °F 41.0 °F 48% 29.83 in 10.0 mi SSW 9.2 mph - N/A   Scattered Clouds
5:15 PM 60.8 °F 39.2 °F 45% 29.82 in 10.0 mi South 8.1 mph 16.1 mph N/A   Mostly Cloudy
5:35 PM 60.8 °F 39.2 °F 45% 29.82 in 10.0 mi South 9.2 mph - N/A   Mostly Cloudy
5:55 PM 60.8 °F 39.2 °F 45% 29.82 in 10.0 mi South 8.1 mph - N/A   Scattered Clouds
6:15 PM 60.8 °F 39.2 °F 45% 29.81 in 10.0 mi South 8.1 mph - N/A   Clear
6:35 PM 60.8 °F 39.2 °F 45% 29.81 in 10.0 mi South 10.4 mph - N/A   Clear
6:55 PM 60.8 °F 39.2 °F 45% 29.81 in 10.0 mi South 9.2 mph - N/A   Clear
7:15 PM 60.8 °F 39.2 °F 45% 29.81 in 10.0 mi SSW 8.1 mph - N/A   Clear
7:35 PM 60.8 °F 41.0 °F 48% 29.82 in 10.0 mi SSW 11.5 mph 18.4 mph N/A   Clear
7:55 PM 60.8 °F 42.8 °F 52% 29.82 in 10.0 mi SSW 11.5 mph 17.3 mph N/A   Clear
8:15 PM 60.8 °F 42.8 °F 52% 29.85 in 10.0 mi SSW 12.7 mph 18.4 mph N/A   Scattered Clouds
8:35 PM 60.8 °F 42.8 °F 52% 29.85 in 10.0 mi SW 12.7 mph 20.7 mph N/A   Overcast
8:55 PM 60.8 °F 42.8 °F 52% 29.84 in 10.0 mi SSW 12.7 mph 19.6 mph N/A   Overcast
9:15 PM 60.8 °F 42.8 °F 52% 29.84 in 10.0 mi SSW 11.5 mph 21.9 mph N/A   Mostly Cloudy
9:35 PM 60.8 °F 42.8 °F 52% 29.84 in 10.0 mi SSW 12.7 mph 18.4 mph N/A   Overcast
9:55 PM 60.8 °F 42.8 °F 52% 29.84 in 10.0 mi SSW 18.4 mph 28.8 mph N/A   Overcast
10:15 PM 60.8 °F 42.8 °F 52% 29.85 in 10.0 mi SSW 12.7 mph 20.7 mph N/A   Overcast
10:35 PM 60.8 °F 42.8 °F 52% 29.85 in 10.0 mi SSW 9.2 mph 20.7 mph N/A   Overcast
10:55 PM 60.8 °F 42.8 °F 52% 29.84 in 10.0 mi SSW 11.5 mph 18.4 mph N/A   Partly Cloudy
11:15 PM 60.8 °F 42.8 °F 52% 29.83 in 10.0 mi SSW 9.2 mph 21.9 mph N/A   Clear
11:35 PM 60.8 °F 42.8 °F 52% 29.84 in 10.0 mi SSW 11.5 mph 20.7 mph N/A   Clear
11:55 PM 60.8 °F 42.8 °F 52% 29.85 in 10.0 mi SSW 12.7 mph 20.7 mph N/A   Clear